Location: Ch�risy
(50.2331°N, 2.9131°E)
Time: 20:40:30
(UTC+00:00)

Daily predictions for brighter satellites

Satellite Brightness Start Highest point End
(mag) Time Altitude Azimuth Time Altitude Azimuth Time Altitude Azimuth
Cosmos 372 Rocket 4.2 16:47:56 10° S 16:52:55 55° ESE 16:57:59 10° NNE
Cosmos 1461 3.4 16:49:26 10° NW 16:53:44 73° SW 16:58:11 10° SSE
H-2A R/B 2.7 16:51:34 10° SSE 16:55:23 67° ENE 16:59:16 10° N
SMAP 3.0 16:51:01 10° SSE 16:55:39 70° ENE 17:00:18 10° N
Cosmos 2219 Rocket 2.3 16:50:47 10° NNW 16:56:31 87° ENE 17:02:12 10° SSE
CZ-4B R/B 2.9 16:56:02 10° N 16:58:51 33° WNW 17:01:38 10° SW
Okean 1-7 Rocket 3.7 16:55:57 10° S 17:00:21 86° W 17:04:48 10° N
Cosmos 2227 Rocket 3.8 16:57:40 10° SE 17:00:34 14° E 17:03:28 10° ENE
Helios 1A Rocket 3.8 16:57:08 10° S 17:01:06 54° WSW 17:05:06 10° NNW
Alouette 2 Rocket 4.2 16:56:39 10° N 17:01:13 74° ENE 17:08:11 10° SSE
Cosmos 2058 Rocket 3.5 16:57:49 10° NNW 17:02:11 69° W 17:06:31 10° S
Cosmos 1689 Rocket 2.8 16:59:19 10° N 17:02:12 53° WNW 17:05:05 10° SSW
COSMOS 2428 2.8 16:57:15 10° NNW 17:03:02 88° WSW 17:08:48 10° SSE
Cosmos 1602 Rocket 4.0 17:06:40 10° SSE 17:10:45 39° E 17:14:49 10° NNE
AQUARIUS 4.2 17:06:52 10° SSE 17:11:21 87° E 17:15:53 10° NNW
Cosmos 2074 Rocket 4.0 17:06:56 10° S 17:13:13 79° E 17:19:32 10° NNE
USA 267 3.3 17:09:48 10° ENE 17:16:22 84° NNW 17:22:56 10° WSW
COSMO-SKYMED 1 3.5 17:15:34 10° NE 17:19:22 28° E 17:23:07 10° SSE
ATLAS CENTAUR R/B 3.0 17:16:37 10° NNW 17:19:35 18° NNE 17:21:49 12° ENE
Cosmos 494 Rocket 3.9 17:17:43 10° NNW 17:22:51 69° ENE 17:27:57 10° SSE
Meteor 2-10 Rocket 4.3 17:19:37 10° N 17:24:18 29° ENE 17:28:47 10° SE
CZ-4C R/B 3.1 17:18:06 10° NW 17:25:10 80° SW 17:33:20 10° SE
Cosmos 1758 Rocket 4.4 17:24:14 10° SSE 17:27:52 27° E 17:31:31 10° NNE
Cosmos 2298 Rocket 4.2 17:23:08 10° SSW 17:28:27 78° WNW 17:33:48 10° NNE
Ariane Rocket 4.2 17:25:32 10° ESE 17:29:09 20° NE 17:32:46 10° N
TIMED 4.4 17:24:57 10° NNW 17:29:22 80° ENE 17:33:44 10° SSE
NOSS 0 Rocket 4.0 17:23:22 10° NNW 17:29:38 90° NW 17:35:51 10° SSE
Starlink AQ 2.7 17:27:39 10° WSW 17:30:37 81° SSE 17:32:35 19° ENE
CZ-4 R/B 1.8 17:27:22 10° SE 17:31:11 41° ENE 17:35:06 10° N
Starlink AS 2.6 17:28:22 10° WSW 17:31:17 82° SSE 17:33:13 19° ENE
Starlink BA 2.6 17:28:38 10° WSW 17:31:34 82° SSE 17:33:28 20° ENE
Starlink AU 2.6 17:28:51 10° WSW 17:31:47 82° SSE 17:33:41 20° ENE
Nadezhda 3 Rocket 4.0 17:25:37 10° N 17:31:55 81° E 17:38:16 10° SSE
Starlink AT 2.6 17:29:05 10° WSW 17:32:00 83° SSE 17:33:54 20° ENE
Starlink BB 2.6 17:29:18 10° WSW 17:32:13 83° SSE 17:34:07 20° ENE
BREEZE-M DEB (TANK) 4.4 17:31:14 10° S 17:32:19 12° SE 17:33:13 11° ESE
Starlink BC 2.6 17:29:31 10° WSW 17:32:27 83° SSE 17:34:20 20° ENE
Starlink BK 2.6 17:29:45 10° WSW 17:32:41 83° SSE 17:34:33 20° ENE
Starlink AY 2.6 17:29:58 10° WSW 17:32:54 84° SSE 17:34:46 20° ENE
Cosmos 1626 Rocket 3.5 17:28:43 10° S 17:33:03 82° E 17:37:23 10° NNE
Starlink AW 2.6 17:30:12 10° WSW 17:33:08 84° SSE 17:34:59 20° ENE
Starlink BJ 2.6 17:30:26 10° WSW 17:33:22 84° SSE 17:35:12 20° ENE
Starlink AV 2.6 17:30:38 10° WSW 17:33:34 84° SSE 17:35:24 21° ENE
Starlink BD 2.6 17:30:52 10° WSW 17:33:47 84° SSE 17:35:38 21° ENE
Starlink BE 2.6 17:31:04 10° WSW 17:34:01 85° SSE 17:35:52 21° ENE
Starlink BM 2.6 17:31:19 10° WSW 17:34:15 85° SSE 17:36:04 21° ENE
Starlink AX 2.6 17:31:33 10° WSW 17:34:29 85° SSE 17:36:17 21° ENE
Starlink BH 2.6 17:31:46 10° WSW 17:34:42 85° SSE 17:36:30 21° ENE
Starlink AZ 2.6 17:32:00 10° WSW 17:34:55 86° SSE 17:36:42 21° ENE
Starlink BG 2.6 17:32:13 10° WSW 17:35:09 86° SSE 17:36:55 21° ENE
NOSS 2-1 (C) 4.3 17:30:25 10° NW 17:35:19 62° NE 17:42:09 10° ESE
Okean-O 2.6 17:30:57 10° SSE 17:35:23 84° ENE 17:39:51 10° NNW
Starlink BF 2.6 17:32:27 10° WSW 17:35:23 86° SSE 17:37:09 21° ENE
Starlink BL 2.6 17:32:38 10° WSW 17:35:36 86° SSE 17:37:23 21° ENE
Starlink AH 2.6 17:32:54 10° WSW 17:35:49 87° SSE 17:37:34 22° ENE
Starlink AC 2.6 17:33:08 10° WSW 17:36:04 87° SSE 17:37:48 22° ENE
Starlink X 2.6 17:33:21 10° WSW 17:36:16 87° SSE 17:38:00 22° ENE
CSL-04 Debris 4.4 17:31:13 10° SE 17:36:17 44° ENE 17:41:24 10° N
Okean O Rocket 4.4 17:32:52 10° SW 17:36:23 23° W 17:39:55 10° NW
Starlink AE 2.7 17:33:31 10° WSW 17:36:29 87° SSE 17:38:15 22° ENE
Starlink Z 2.6 17:33:47 10° WSW 17:36:44 88° SE 17:38:26 22° ENE
Starlink AK 2.6 17:34:01 10° WSW 17:36:57 88° SSE 17:38:39 22° ENE
Starlink AL 2.6 17:34:15 10° WSW 17:37:11 88° SSE 17:38:53 23° ENE
Starlink AD 2.6 17:34:28 10° WSW 17:37:24 88° SSE 17:39:05 23° ENE
Starlink Y 2.6 17:34:55 10° WSW 17:37:51 89° S 17:39:32 23° ENE
Starlink AG 2.6 17:35:09 10° WSW 17:38:05 89° SSE 17:39:45 23° ENE
Starlink W 2.6 17:35:20 10° WSW 17:38:17 89° SSW 17:39:59 23° ENE
Starlink AJ 2.6 17:35:35 10° WSW 17:38:31 89° SE 17:40:10 23° ENE
Starlink AM 2.6 17:36:03 10° WSW 17:38:59 90° ENE 17:40:37 24° ENE
NOSS 2-1 (D) 4.3 17:34:13 10° NW 17:39:09 65° NE 17:46:04 10° SE
Starlink AP 2.6 17:36:15 10° WSW 17:39:11 90° NNW 17:40:49 24° ENE
Starlink AA 2.6 17:36:29 10° WSW 17:39:26 89° NNE 17:41:02 24° ENE
Starlink AF 2.6 17:36:43 10° WSW 17:39:39 89° N 17:41:15 24° ENE
CZ-4 R/B 4.5 17:35:41 10° SSE 17:39:43 56° ENE 17:43:46 10° N
Starlink AB 2.6 17:36:56 10° WSW 17:39:52 89° NW 17:41:28 24° ENE
Starlink AN 2.6 17:37:09 10° WSW 17:40:05 89° NNW 17:41:41 24° ENE
H-2A R/B 3.5 17:43:38 16° NE 17:43:38 16° NE 17:46:31 10° NNE
Cosmos 2251 Rocket 4.2 17:43:35 10° N 17:48:20 32° NE 17:52:20 13° ESE
ATLAS CENTAUR R/B 4.0 17:42:55 10° WSW 17:48:34 77° NNW 18:01:48 16° ENE
Cosmos 2237 Rocket 2.1 17:42:58 10° NNW 17:48:39 86° ENE 17:54:17 10° SSE
Cosmos 1300 3.5 17:45:25 10° NNW 17:49:09 53° W 17:52:52 10° S
Timation 2 Rocket 4.0 17:43:37 10° SSW 17:49:45 84° WNW 17:56:11 10° NNE
CZ-2D R/B 3.7 17:46:51 10° SE 17:50:22 37° ENE 17:53:57 10° N
Cosmos 1242 Rocket 3.2 17:47:23 10° SSW 17:50:50 55° WNW 17:54:21 10° N
Cosmos 2333 Rocket 3.9 17:46:19 10° NW 17:51:33 38° WSW 17:56:44 10° S
Starlink T 2.7 17:48:49 10° WSW 17:51:48 78° NNW 17:53:01 32° ENE
SJ 16-02 3.9 17:50:02 10° W 17:52:48 16° NW 17:55:35 10° N
Cosmos 1825 Rocket 3.9 17:48:56 10° SSE 17:53:02 42° E 17:57:08 10° NNE
Starlink N 2.7 17:50:10 10° WSW 17:53:10 77° NNW 17:54:19 34° ENE
Cosmos 1607 4.0 17:47:40 10° SW 17:53:49 78° NW 17:59:21 14° NE
Starlink Q 2.7 17:51:49 10° WSW 17:54:49 76° NNW 17:55:54 35° ENE
Starlink P 2.7 17:53:16 10° WSW 17:56:16 74° NNW 17:57:18 36° ENE
SL-8 Rocket 4.2 17:50:36 10° SSE 17:56:34 46° E 18:02:32 10° NNE
USA 32 4.0 17:52:25 10° S 17:57:35 65° E 18:02:46 10° NNE
Starlink U 2.8 17:54:42 10° WSW 17:57:43 73° NNW 17:58:42 38° ENE
Cosmos 2341 Rocket 4.0 17:51:41 10° S 17:57:57 63° E 18:04:14 10° NNE
Starlink B 2.8 17:56:11 10° WSW 17:59:11 72° NNW 18:00:07 39° ENE
Cosmos 724 4.5 17:54:30 10° SSW 18:00:17 53° ESE 18:04:06 21° NE
YAOGAN 6 3.2 17:58:02 10° S 18:01:42 59° W 18:05:20 10° NNW
Cosmos 1626 3.0 17:58:53 10° SSW 18:02:29 49° WNW 18:06:08 10° N
CSL-04 Rocket 3.6 17:57:57 10° SSE 18:03:25 69° ENE 18:08:57 10° NNW
Meteor 2-17 Rocket 4.4 17:58:15 10° S 18:04:24 83° E 18:10:34 10° NNE
Cosmos 1455 2.3 18:01:02 10° N 18:04:46 48° ENE 18:08:27 10° SSE
Starlink D 2.9 18:03:08 10° W 18:06:09 67° NNW 18:06:50 47° NE
CZ-2C R/B 4.5 18:07:47 21° NE 18:07:47 21° NE 18:11:15 10° N
SKYMED 2 3.5 18:03:13 10° NNE 18:07:35 82° ESE 18:11:56 10° SSW
Starlink S 2.9 18:04:40 10° W 18:07:41 66° NNW 18:08:19 49° NE
Cosmos 1340 Rocket 4.0 18:04:35 10° NNW 18:08:22 44° W 18:12:09 10° SSW
ATLAS 5 CENTAUR R/B 3.2 18:05:00 10° W 18:08:57 29° NNW 18:12:19 15° NNE
Starlink C 2.9 18:06:10 10° W 18:09:11 66° NNW 18:09:45 50° NE
SL-16 R/B 2.3 18:04:33 10° NNW 18:10:09 55° NE 18:15:04 13° SE
Meteor 1-21 Rocket 4.1 18:04:47 10° S 18:10:20 69° E 18:16:02 10° NNE
Starlink E 2.9 18:07:44 10° W 18:10:45 65° NNW 18:11:15 52° NE
Cosmos 1328 4.4 18:08:13 10° SSE 18:11:36 34° E 18:11:36 34° E
Starlink J 2.9 18:09:17 10° W 18:12:18 64° NNW 18:12:45 54° NNE
Starlink V 2.9 18:10:49 10° W 18:13:50 63° NNW 18:14:14 55° NNE
Cosmos 1125 Rocket 3.9 18:09:23 10° SW 18:14:31 63° WNW 18:19:44 10° NNE
ISS -1.8 18:12:13 10° S 18:14:04 17° SSE 18:14:04 17° SSE
USA 116 3.5 18:15:28 45° SE 18:15:28 45° SE 18:18:08 10° S
Starlink H 2.9 18:12:23 10° W 18:15:24 62° NNW 18:15:44 56° NNE
Cosmos 44 4.2 18:11:40 10° S 18:15:15 26° ESE 18:15:15 26° ESE
Starlink F 2.9 18:13:58 10° W 18:16:59 61° NNW 18:17:15 57° NNE
Cosmos 2219 3.1 18:12:05 10° SSW 18:17:41 78° ESE 18:21:51 19° NNE
Starlink G 2.9 18:15:31 10° W 18:18:32 61° NNW 18:18:45 58° N
Starlink L 2.9 18:17:05 10° W 18:20:06 60° NNW 18:20:16 59° N
Cosmos 2082 4.2 18:15:49 10° S 18:20:52 36° ESE 18:21:52 33° E
Starlink A 3.0 18:18:40 10° W 18:21:41 59° NNW 18:21:47 59° N
Starlink R 3.0 18:20:15 10° W 18:23:16 58° NNW 18:23:18 58° N
Starlink AR 3.4 18:20:55 10° W 18:22:56 42° NW 18:22:56 42° NW
Starlink K 3.1 18:21:48 10° W 18:24:48 58° NNW 18:24:48 58° NNW
Starlink M 3.1 18:23:20 10° W 18:26:16 57° NNW 18:26:16 57° NNW
YAOGAN 1 2.9 18:24:50 10° S 18:29:08 67° WSW 18:33:28 10° NNW
Cosmos 2218 Rocket 4.0 18:23:18 10° S 18:29:33 67° E 18:35:55 10° NNE
ATLAS 5 CENTAUR R/B 3.5 18:25:54 10° NW 18:29:45 46° NE 18:33:50 29° E
Cosmos-2242 3.3 18:26:35 10° NNW 18:30:54 69° W 18:35:10 10° S
Cosmos 1339 Rocket 4.3 18:25:03 10° N 18:31:10 87° E 18:37:17 10° S
Cosmos 2297 Rocket 2.1 18:25:47 10° SSW 18:31:23 72° ESE 18:34:24 29° NE
ADEOS Rocket 3.4 18:26:47 10° NNE 18:33:03 49° E 18:39:57 10° S
Cosmos 864 Rocket 4.3 18:29:24 10° S 18:35:28 66° E 18:41:33 10° NNE
Cosmos 1939 Rocket 3.0 18:32:42 10° S 18:36:36 72° WSW 18:40:35 10° NNW
ERBS 2.9 18:37:52 10° SW 18:40:27 48° SSW 18:40:27 48° SSW
Cosmos 2227 Rocket 2.1 18:38:03 10° SSW 18:43:42 80° ESE 18:46:12 35° NE
Cosmos 1959 Rocket 4.4 18:47:37 10° S 18:53:48 87° W 18:59:59 10° N
Cosmos 1703 3.7 18:50:52 10° S 18:53:59 54° SSW 18:53:59 54° SSW
COSMO-SKYMED 1 4.1 18:51:36 10° N 18:55:35 36° WNW 18:59:32 10° SW
ARGOS 3.8 18:59:07 39° NNE 18:59:07 39° NNE 19:02:52 10° N
Cosmos 1943 4.2 18:53:10 10° NNW 18:57:04 31° NNE 18:57:04 31° NNE
USA 267 3.7 18:56:47 36° NE 18:59:07 52° N 19:05:24 10° W
ATLAS CENTAUR R/B 2.2 18:55:12 10° NW 18:58:01 39° NNW 18:58:01 39° NNW
Cosmos 1953 Rocket 4.0 18:55:58 10° SSW 19:00:25 62° WNW 19:02:55 25° N
Cosmos 1000 Rocket 4.4 18:56:23 10° N 19:02:30 58° ENE 19:02:34 58° E
Cosmos 2366 rocket 4.1 18:58:52 10° SSW 19:05:05 77° W 19:11:25 10° N
CZ-4 R/B 3.9 19:03:12 10° SW 19:06:24 22° W 19:09:40 10° NW
Meteor 2-10 Rocket 4.5 19:01:27 10° NNW 19:06:36 47° W 19:11:32 10° SSW
Ariane Rocket 3.1 19:02:30 10° S 19:07:34 76° WSW 19:12:40 10° NNW
Cosmos 1932 4.5 19:04:11 10° SW 19:10:36 84° NW 19:12:28 50° NNE
H-2A R/B 2.9 19:24:14 38° N 19:24:14 38° N 19:27:20 10° NNW
Cosmos 2251 Rocket 4.4 19:25:44 10° NNW 19:30:48 47° WSW 19:32:56 31° SSW
Meteor 2-2 Rocket 4.4 19:27:21 10° NNW 19:32:41 70° NNW 19:32:41 70° NNW
Meteor 2-12 Rocket 4.4 19:27:55 10° SSW 19:33:59 81° W 19:34:32 73° NNW
CZ-2C R/B 4.4 19:48:50 35° NNW 19:48:50 35° NNW 19:52:01 10° NNW
SL-16 R/B 3.9 19:49:08 10° NW 19:54:00 30° WSW 19:57:05 18° SSW
ATLAS 5 CENTAUR R/B 4.1 19:51:39 10° NW 19:53:51 17° NNW 19:53:51 17° NNW
Cosmos 2297 Rocket 3.9 20:11:12 10° W 20:16:00 27° NW 20:16:16 27° NW
ADEOS Rocket 4.3 20:12:36 10° N 20:18:29 41° WNW 20:24:56 10° SW
Cosmos 2227 Rocket 4.1 20:23:47 10° W 20:28:04 25° NW 20:28:04 25° NW
USA 267 4.5 20:44:07 35° NW 20:44:07 35° NW 20:47:56 10° WNW
